• en Suisse
  • Liste des pays
  • À 7 jours
  • Température de l'eau
  • Carte satellitaire
  • Carte météo
  • Widgets météo
  • user-avatar
    Se connecter

    Météo par heure à Northampton

    Ce jour, 27 Mai, Dimanche

    Heure Température Précipitation Vent Pression Humidité
    00:00 +12°C° 0 mm 4 m/s 755 mmHg 91%
    01:00 +12°C° 0,1 mm 5 m/s 755 mmHg 92%
    02:00 +12°C° 0,1 mm 5 m/s 754 mmHg 93%
    03:00 +11°C° 0,1 mm 6 m/s 754 mmHg 94%
    04:00 +13°C° 0 mm 5 m/s 754 mmHg 94%
    05:00 +14°C° 0 mm 5 m/s 754 mmHg 94%
    06:00 +15°C° 0 mm 5 m/s 754 mmHg 93%
    07:00 +16°C° 0,6 mm 5 m/s 754 mmHg 91%
    08:00 +19°C° 0,6 mm 5 m/s 754 mmHg 89%
    09:00 +21°C° 0,6 mm 5 m/s 753 mmHg 87%
    10:00 +22°C° 0,6 mm 5 m/s 753 mmHg 85%
    11:00 +22°C° 0,6 mm 5 m/s 753 mmHg 82%
    12:00 +23°C° 0,6 mm 5 m/s 753 mmHg 80%
    13:00 +23°C° 2,2 mm 4 m/s 753 mmHg 81%
    14:00 +23°C° 2,2 mm 4 m/s 753 mmHg 82%
    15:00 +22°C° 2,2 mm 4 m/s 753 mmHg 83%
    16:00 +22°C° 0,7 mm 3 m/s 753 mmHg 84%
    17:00 +22°C° 0,7 mm 3 m/s 753 mmHg 85%
    18:00 +22°C° 0,7 mm 3 m/s 753 mmHg 87%
    19:00 +20°C° 0 mm 3 m/s 753 mmHg 89%
    20:00 +18°C° 0 mm 3 m/s 753 mmHg 92%
    21:00 +17°C° 0 mm 2 m/s 754 mmHg 95%
    22:00 +16°C° 0,2 mm 2 m/s 754 mmHg 95%
    23:00 +15°C° 0,2 mm 2 m/s 754 mmHg 96%

    Demain, 28 Mai, Lundi

    Heure Température Précipitation Vent Pression Humidité
    00:00 +15°C° 0,2 mm 2 m/s 754 mmHg 96%
    01:00 +14°C° 0 mm 2 m/s 754 mmHg 96%
    02:00 +14°C° 0 mm 2 m/s 754 mmHg 97%
    03:00 +14°C° 0 mm 2 m/s 754 mmHg 97%
    04:00 +14°C° 0 mm 2 m/s 754 mmHg 96%
    05:00 +14°C° 0 mm 2 m/s 754 mmHg 96%
    06:00 +15°C° 0 mm 2 m/s 755 mmHg 96%
    07:00 +16°C° 0 mm 2 m/s 755 mmHg 94%
    08:00 +17°C° 0 mm 2 m/s 755 mmHg 91%
    09:00 +18°C° 0 mm 3 m/s 755 mmHg 89%
    10:00 +19°C° 0 mm 3 m/s 755 mmHg 87%
    11:00 +20°C° 0 mm 3 m/s 755 mmHg 85%
    12:00 +21°C° 0 mm 3 m/s 755 mmHg 83%
    13:00 +22°C° 0,3 mm 3 m/s 755 mmHg 82%
    14:00 +22°C° 0,3 mm 3 m/s 755 mmHg 82%
    15:00 +24°C° 0,3 mm 3 m/s 755 mmHg 82%
    16:00 +22°C° 0,4 mm 4 m/s 755 mmHg 84%
    17:00 +22°C° 0,4 mm 4 m/s 755 mmHg 86%
    18:00 +21°C° 0,4 mm 4 m/s 755 mmHg 87%
    19:00 +20°C° 0,3 mm 4 m/s 755 mmHg 89%
    20:00 +18°C° 0,3 mm 4 m/s 756 mmHg 91%
    21:00 +16°C° 0,3 mm 5 m/s 756 mmHg 93%
    22:00 +15°C° 0 mm 4 m/s 756 mmHg 94%
    23:00 +14°C° 0 mm 4 m/s 756 mmHg 94%

    Après-demain, 29 Mai, Mardi

    Heure Température Précipitation Vent Pression Humidité
    00:00 +13°C° 0 mm 4 m/s 756 mmHg 95%
    01:00 +13°C° 0 mm 4 m/s 756 mmHg 95%
    02:00 +12°C° 0 mm 4 m/s 756 mmHg 95%
    03:00 +12°C° 0 mm 4 m/s 755 mmHg 95%
    04:00 +12°C° 0 mm 5 m/s 755 mmHg 94%
    05:00 +13°C° 0 mm 5 m/s 755 mmHg 93%
    06:00 +13°C° 0 mm 5 m/s 755 mmHg 92%
    07:00 +15°C° 0 mm 5 m/s 755 mmHg 88%
    08:00 +16°C° 0 mm 5 m/s 755 mmHg 84%
    09:00 +19°C° 0 mm 6 m/s 755 mmHg 81%
    10:00 +19°C° 0 mm 6 m/s 755 mmHg 79%
    11:00 +20°C° 0 mm 6 m/s 755 mmHg 77%
    12:00 +21°C° 0 mm 6 m/s 754 mmHg 75%
    13:00 +21°C° 0 mm 6 m/s 754 mmHg 75%
    14:00 +21°C° 0 mm 6 m/s 754 mmHg 75%
    15:00 +21°C° 0 mm 6 m/s 753 mmHg 75%
    16:00 +20°C° 0 mm 6 m/s 753 mmHg 77%
    17:00 +20°C° 0 mm 6 m/s 753 mmHg 80%
    18:00 +19°C° 0 mm 5 m/s 752 mmHg 83%
    19:00 +16°C° 0 mm 5 m/s 752 mmHg 87%
    20:00 +14°C° 0 mm 5 m/s 753 mmHg 91%
    21:00 +13°C° 0 mm 4 m/s 753 mmHg 95%
    22:00 +12°C° 0 mm 4 m/s 753 mmHg 95%
    23:00 +11°C° 0 mm 4 m/s 752 mmHg 96%

    30 Mai, Mercredi

    Heure Température Précipitation Vent Pression Humidité
    00:00 +11°C° 0 mm 4 m/s 752 mmHg 97%
    01:00 +10°C° 0 mm 4 m/s 752 mmHg 97%
    02:00 +10°C° 0 mm 4 m/s 752 mmHg 97%
    03:00 +10°C° 0 mm 3 m/s 751 mmHg 97%
    04:00 +10°C° 0 mm 4 m/s 751 mmHg 96%
    05:00 +11°C° 0 mm 4 m/s 751 mmHg 95%
    06:00 +12°C° 0 mm 4 m/s 751 mmHg 94%
    07:00 +12°C° 0 mm 4 m/s 751 mmHg 93%
    08:00 +13°C° 0 mm 3 m/s 751 mmHg 91%
    09:00 +13°C° 0 mm 3 m/s 751 mmHg 90%
    10:00 +14°C° 0 mm 3 m/s 751 mmHg 88%
    11:00 +14°C° 0 mm 3 m/s 751 mmHg 87%
    12:00 +16°C° 0 mm 2 m/s 751 mmHg 85%
    13:00 +16°C° 0 mm 2 m/s 750 mmHg 84%
    14:00 +17°C° 0 mm 2 m/s 750 mmHg 83%
    15:00 +18°C° 0 mm 2 m/s 750 mmHg 82%
    16:00 +18°C° 0 mm 2 m/s 750 mmHg 83%
    17:00 +18°C° 0 mm 2 m/s 750 mmHg 85%
    18:00 +19°C° 0 mm 1 m/s 750 mmHg 86%
    19:00 +18°C° 0 mm 1 m/s 750 mmHg 88%
    20:00 +16°C° 0 mm 1 m/s 750 mmHg 91%
    21:00 +15°C° 0 mm 1 m/s 751 mmHg 93%
    22:00 +15°C° 0 mm 1 m/s 751 mmHg 93%
    23:00 +13°C° 0 mm 0 m/s 751 mmHg 94%

    31 Mai, Jeudi

    Heure Température Précipitation Vent Pression Humidité
    00:00 +13°C° 0 mm 0 m/s 751 mmHg 95%
    01:00 +13°C° 0 mm 0 m/s 751 mmHg 95%
    02:00 +12°C° 0 mm 0 m/s 751 mmHg 95%
    03:00 +12°C° 0 mm 0 m/s 750 mmHg 96%
    04:00 +13°C° 0 mm 0 m/s 751 mmHg 95%
    05:00 +14°C° 0 mm 0 m/s 751 mmHg 94%
    06:00 +15°C° 0 mm 1 m/s 751 mmHg 93%
    07:00 +16°C° 0 mm 1 m/s 751 mmHg 89%
    08:00 +19°C° 0 mm 1 m/s 752 mmHg 85%
    09:00 +20°C° 0 mm 1 m/s 752 mmHg 80%
    10:00 +21°C° 0 mm 1 m/s 752 mmHg 78%
    11:00 +21°C° 0 mm 1 m/s 752 mmHg 76%
    12:00 +20°C° 0 mm 0 m/s 752 mmHg 74%
    13:00 +22°C° 0 mm 1 m/s 752 mmHg 72%
    14:00 +23°C° 0 mm 1 m/s 752 mmHg 71%
    15:00 +23°C° 0 mm 1 m/s 752 mmHg 70%
    16:00 +23°C° 0 mm 1 m/s 752 mmHg 73%
    17:00 +23°C° 0 mm 1 m/s 752 mmHg 76%
    18:00 +23°C° 0 mm 2 m/s 752 mmHg 79%
    19:00 +20°C° 0 mm 2 m/s 752 mmHg 83%
    20:00 +18°C° 0 mm 2 m/s 753 mmHg 88%
    21:00 +17°C° 0 mm 2 m/s 753 mmHg 92%
    22:00 +16°C° 0 mm 2 m/s 753 mmHg 93%
    23:00 +16°C° 0 mm 2 m/s 754 mmHg 94%

    1 Juin, Vendredi

    Heure Température Précipitation Vent Pression Humidité
    00:00 +15°C° 0 mm 1 m/s 754 mmHg 94%
    01:00 +15°C° 0 mm 1 m/s 754 mmHg 95%
    02:00 +15°C° 0 mm 1 m/s 754 mmHg 95%
    03:00 +14°C° 0 mm 1 m/s 754 mmHg 95%
    04:00 +15°C° 0 mm 1 m/s 754 mmHg 94%
    05:00 +16°C° 0 mm 1 m/s 754 mmHg 94%
    06:00 +16°C° 0 mm 2 m/s 754 mmHg 93%
    07:00 +17°C° 0 mm 2 m/s 754 mmHg 90%
    08:00 +19°C° 0 mm 2 m/s 755 mmHg 86%
    09:00 +20°C° 0 mm 2 m/s 755 mmHg 83%
    10:00 +20°C° 0 mm 2 m/s 755 mmHg 80%
    11:00 +21°C° 0 mm 2 m/s 755 mmHg 78%
    12:00 +21°C° 0 mm 2 m/s 755 mmHg 76%
    13:00 +21°C° 0 mm 3 m/s 755 mmHg 77%
    14:00 +21°C° 0 mm 3 m/s 754 mmHg 78%
    15:00 +21°C° 0 mm 3 m/s 754 mmHg 78%
    16:00 +21°C° 0 mm 3 m/s 754 mmHg 81%
    17:00 +21°C° 0 mm 2 m/s 754 mmHg 83%
    18:00 +20°C° 0 mm 2 m/s 754 mmHg 85%
    19:00 +19°C° 0 mm 2 m/s 754 mmHg 88%
    20:00 +18°C° 0 mm 2 m/s 755 mmHg 91%
    21:00 +17°C° 0 mm 2 m/s 755 mmHg 95%
    22:00 +16°C° 0,1 mm 3 m/s 755 mmHg 95%
    23:00 +14°C° 0,1 mm 3 m/s 755 mmHg 95%
    Voir plus